Naples, Italy

7:54 PM CET on February 27, 2017 (GMT +0100)
Naples

Weather History for LIRN - March, 2013

Change the Weather History Date:

Monday, March 18, 2013

  Actual Average Record
Temperature  
Mean Temperature 56 °F -  
Max Temperature 62 °F 63 °F 68 °F (2001)
Min Temperature 50 °F 45 °F 33 °F (2003)
Degree Days  
Heating Degree Days 9    
Growing Degree Days 6 (Base 50)    
Moisture  
Dew Point 48 °F    
Average Humidity 73    
Maximum Humidity 94    
Minimum Humidity 55    
Precipitation  
Precipitation 0.00 in 0.10 in - ()
Sea Level Pressure  
Sea Level Pressure 29.68 in    
Wind  
Wind Speed 9 mph ()    
Max Wind Speed 22 mph    
Max Gust Speed 37 mph    
Visibility 5.4 miles    
Events Rain    
Averages and records for this station are not official NWS values.
T = Trace of Precipitation, MM = Missing Value Source: Averaged Metar Reports

Daily Weather History Graph

Daily Weather History Graph

Search for Another Location

Airport or City:

Trip Planner

Search our weather history database for the weather conditions in past years. The results will help you decide how hot, cold, wet, or windy it might be!

Date:

Astronomy

Mar. 18, 2013 Rise Set
Actual Time 6:09 AM CET 6:12 PM CET
Civil Twilight 5:42 AM CET 6:40 PM CET
Nautical Twilight 5:10 AM CET 7:12 PM CET
Astronomical Twilight 4:37 AM CET 7:44 PM CET
Moon 9:52 AM CET (3/18) No Moon Set
Length of Visible Light 12h 57m
Length of Day
12h 03m
Waxing Crescent, 38% of the Moon is Illuminated
Mar 18
Waxing Crescent
Mar 19
First Quarter
Mar 27
Full
Apr 3
Last Quarter
Apr 10
New

Hourly Weather History & Observations

Time (CET) Temp. Dew Point Humidity Pressure Visibility Wind Dir Wind Speed Gust Speed Precip Events Conditions
12:20 AM 51.8 °F 44.6 °F 76% 29.86 in 5.0 mi NNW 5.8 mph - N/A Rain Light Rain
12:50 AM 51.8 °F 46.4 °F 82% 29.83 in 5.0 mi NE 4.6 mph - N/A Rain Light Rain
1:20 AM 51.8 °F 46.4 °F 82% 29.80 in 5.0 mi East 4.6 mph - N/A Rain Light Rain
1:50 AM 50.0 °F 46.4 °F 87% 29.80 in 5.0 mi Variable 2.3 mph - N/A Rain Light Rain
2:20 AM 53.6 °F 48.2 °F 82% 29.77 in 3.7 mi South 4.6 mph - N/A Rain Rain
2:50 AM 50.0 °F 46.4 °F 87% 29.77 in 3.7 mi Variable 3.5 mph - N/A Rain Rain
3:20 AM 50.0 °F 48.2 °F 94% 29.77 in 3.7 mi ESE 3.5 mph - N/A Rain Rain
3:50 AM 50.0 °F 48.2 °F 94% 29.77 in 5.0 mi NE 5.8 mph - N/A   Mostly Cloudy
4:20 AM 50.0 °F 48.2 °F 94% 29.77 in 5.0 mi NNE 8.1 mph - N/A Rain Light Rain
4:50 AM 50.0 °F 48.2 °F 94% 29.77 in 5.0 mi Variable 3.5 mph - N/A Rain Light Rain
5:20 AM 51.8 °F 48.2 °F 88% 29.77 in 5.0 mi North 3.5 mph - N/A Rain Light Rain
5:50 AM 51.8 °F 48.2 °F 88% 29.74 in 5.0 mi NNW 3.5 mph - N/A Rain Light Rain
6:20 AM 55.4 °F 46.4 °F 72% 29.71 in 6.2 mi South 10.4 mph - N/A   Scattered Clouds
6:50 AM 57.2 °F 46.4 °F 67% 29.71 in 6.2 mi SSW 13.8 mph - N/A   Partly Cloudy
7:20 AM 59.0 °F 46.4 °F 63% 29.71 in 6.2 mi SSW 11.5 mph - N/A   Mostly Cloudy
7:50 AM 59.0 °F 46.4 °F 63% 29.71 in 6.2 mi South 16.1 mph - N/A   Mostly Cloudy
8:20 AM 59.0 °F 46.4 °F 63% 29.71 in 6.2 mi South 15.0 mph 28.8 mph N/A   Mostly Cloudy
8:50 AM 59.0 °F 48.2 °F 67% 29.68 in 6.2 mi SSW 15.0 mph 31.1 mph N/A   Mostly Cloudy
9:20 AM 59.0 °F 46.4 °F 63% 29.68 in 6.2 mi South 15.0 mph - N/A   Mostly Cloudy
9:50 AM 60.8 °F 46.4 °F 59% 29.68 in 6.2 mi South 17.3 mph 29.9 mph N/A   Mostly Cloudy
10:20 AM 60.8 °F 48.2 °F 63% 29.68 in 6.2 mi South 19.6 mph 36.8 mph N/A   Mostly Cloudy
10:50 AM 62.6 °F 46.4 °F 55% 29.68 in 6.2 mi South 17.3 mph 29.9 mph N/A   Mostly Cloudy
11:20 AM 62.6 °F 46.4 °F 55% 29.65 in 6.2 mi South 21.9 mph 35.7 mph N/A   Mostly Cloudy
11:50 AM 60.8 °F 46.4 °F 59% 29.65 in 6.2 mi South 17.3 mph 35.7 mph N/A   Mostly Cloudy
12:20 PM 60.8 °F 48.2 °F 63% 29.62 in 6.2 mi South 18.4 mph 29.9 mph N/A   Mostly Cloudy
12:50 PM 62.6 °F 48.2 °F 59% 29.59 in 6.2 mi South 17.3 mph 33.4 mph N/A   Mostly Cloudy
1:20 PM 60.8 °F 50.0 °F 68% 29.62 in 6.2 mi South 16.1 mph 29.9 mph N/A   Mostly Cloudy
1:50 PM 62.6 °F 50.0 °F 63% 29.62 in 6.2 mi South 13.8 mph - N/A   Mostly Cloudy
2:20 PM 62.6 °F 50.0 °F 63% 29.59 in 6.2 mi South 15.0 mph 26.5 mph N/A   Mostly Cloudy
2:50 PM 60.8 °F 50.0 °F 68% 29.59 in 6.2 mi South 15.0 mph 26.5 mph N/A   Mostly Cloudy
3:20 PM 60.8 °F 50.0 °F 68% 29.59 in 6.2 mi South 15.0 mph - N/A Rain Light Rain
3:50 PM 60.8 °F 50.0 °F 68% 29.59 in 6.2 mi South 15.0 mph - N/A Rain Light Rain
4:20 PM 59.0 °F 51.8 °F 77% 29.56 in 5.0 mi South 13.8 mph - N/A Rain Light Rain
4:50 PM 60.8 °F 51.8 °F 72% 29.56 in 5.0 mi South 15.0 mph - N/A Rain Light Rain
5:20 PM 60.8 °F 51.8 °F 72% 29.56 in 5.0 mi South 16.1 mph - N/A Rain Light Rain
5:50 PM 60.8 °F 53.6 °F 77% 29.59 in 5.0 mi South 15.0 mph 27.6 mph N/A Rain Light Rain
6:20 PM 59.0 °F 53.6 °F 82% 29.59 in 4.3 mi SSW 11.5 mph - N/A   Overcast
6:50 PM 59.0 °F 53.6 °F 82% 29.59 in 4.3 mi SSW 11.5 mph - N/A   Overcast
7:20 PM 59.0 °F 55.4 °F 88% 29.62 in 4.3 mi SSW 8.1 mph - N/A   Overcast
7:50 PM 59.0 °F 55.4 °F 88% 29.62 in 4.3 mi WSW 13.8 mph - N/A   Overcast
8:20 PM 59.0 °F 53.6 °F 82% 29.65 in 4.3 mi West 17.3 mph - N/A   Overcast
8:50 PM 57.2 °F 50.0 °F 77% 29.65 in 5.0 mi WNW 12.7 mph - N/A   Mostly Cloudy
9:20 PM 57.2 °F 48.2 °F 72% 29.65 in 5.0 mi West 10.4 mph - N/A   Scattered Clouds
9:50 PM 57.2 °F 46.4 °F 67% 29.65 in 5.0 mi West 11.5 mph - N/A   Scattered Clouds
10:20 PM 55.4 °F 44.6 °F 67% 29.68 in 6.2 mi West 8.1 mph - N/A   Scattered Clouds
10:50 PM 57.2 °F 42.8 °F 59% 29.68 in 6.2 mi West 6.9 mph - N/A   Scattered Clouds
11:20 PM 55.4 °F 42.8 °F 63% 29.68 in 6.2 mi West 8.1 mph - N/A   Scattered Clouds
11:50 PM 55.4 °F 41.0 °F 58% 29.71 in 6.2 mi WSW 3.5 mph - N/A   Partly Cloudy